When you browse on this site, cookies collect data to enhance your experience and personalize the content and advertising you see.
Visit our Privacy Policy to learn more. By continuing to use the site, you agree to this use of cookies and data.
  • In Romania
  • List of Countries
  • For 7 days
  • Water Temperature
  • Satellite Maps
  • Weather Map
  • Weather Widgets
  • user-avatar
    Login

    Hourly Weather Nha Trang

    Today, 12 December, Wednesday

    Time Temperature Precipitation Wind Pressure Humidity
    00:00 +25°C° 0.1 mm 4 mps 749 mmHg 93%
    01:00 +25°C° 0 mm 4 mps 749 mmHg 94%
    02:00 +25°C° 0.2 mm 4 mps 749 mmHg 94%
    03:00 +25°C° 0.2 mm 4 mps 749 mmHg 94%
    04:00 +25°C° 0.2 mm 4 mps 749 mmHg 94%
    05:00 +25°C° 0.4 mm 4 mps 749 mmHg 94%
    06:00 +25°C° 0.4 mm 4 mps 750 mmHg 93%
    07:00 +26°C° 0 mm 3 mps 750 mmHg 91%
    08:00 +28°C° 0.3 mm 4 mps 750 mmHg 84%
    09:00 +29°C° 0.3 mm 4 mps 750 mmHg 77%
    10:00 +30°C° 0.3 mm 5 mps 750 mmHg 70%
    11:00 +30°C° 0.5 mm 5 mps 750 mmHg 70%
    12:00 +30°C° 0.5 mm 5 mps 750 mmHg 71%
    13:00 +32°C° 0 mm 5 mps 749 mmHg 70%
    14:00 +30°C° 0.5 mm 5 mps 749 mmHg 75%
    15:00 +29°C° 0.5 mm 5 mps 749 mmHg 81%
    16:00 +28°C° 0.5 mm 5 mps 749 mmHg 86%
    17:00 +27°C° 0.5 mm 5 mps 749 mmHg 89%
    18:00 +26°C° 0.5 mm 5 mps 749 mmHg 92%
    19:00 +25°C° 0.5 mm 5 mps 750 mmHg 95%
    20:00 +24°C° 1 mm 6 mps 750 mmHg 95%
    21:00 +24°C° 1 mm 6 mps 750 mmHg 96%
    22:00 +24°C° 1 mm 6 mps 750 mmHg 96%
    23:00 +24°C° 1.2 mm 6 mps 750 mmHg 96%

    Tomorrow, 13 December, Thursday

    Time Temperature Precipitation Wind Pressure Humidity
    00:00 +24°C° 1.2 mm 6 mps 750 mmHg 96%
    01:00 +24°C° 1.2 mm 6 mps 750 mmHg 96%
    02:00 +24°C° 0.9 mm 6 mps 750 mmHg 96%
    03:00 +24°C° 0.9 mm 6 mps 750 mmHg 96%
    04:00 +24°C° 0.9 mm 6 mps 749 mmHg 96%
    05:00 +24°C° 0.8 mm 6 mps 750 mmHg 96%
    06:00 +24°C° 0.8 mm 6 mps 750 mmHg 96%
    07:00 +24°C° 0.8 mm 6 mps 750 mmHg 96%
    08:00 +26°C° 1.1 mm 6 mps 750 mmHg 94%
    09:00 +26°C° 1.1 mm 6 mps 751 mmHg 93%
    10:00 +27°C° 1.1 mm 6 mps 751 mmHg 92%
    11:00 +27°C° 0.9 mm 6 mps 751 mmHg 92%
    12:00 +27°C° 0.9 mm 6 mps 750 mmHg 92%
    13:00 +27°C° 0.9 mm 6 mps 750 mmHg 92%
    14:00 +27°C° 0.3 mm 6 mps 749 mmHg 92%
    15:00 +27°C° 0.3 mm 6 mps 749 mmHg 92%
    16:00 +26°C° 0.3 mm 6 mps 749 mmHg 92%
    17:00 +26°C° 0.4 mm 6 mps 749 mmHg 93%
    18:00 +26°C° 0.4 mm 6 mps 749 mmHg 94%
    19:00 +24°C° 0.4 mm 6 mps 750 mmHg 95%
    20:00 +24°C° 0.8 mm 6 mps 750 mmHg 96%
    21:00 +24°C° 0.8 mm 6 mps 750 mmHg 96%
    22:00 +24°C° 0.8 mm 6 mps 751 mmHg 96%
    23:00 +24°C° 0.5 mm 6 mps 750 mmHg 96%

    Day after tomorrow, 14 December, Friday

    Time Temperature Precipitation Wind Pressure Humidity
    00:00 +24°C° 0.5 mm 6 mps 750 mmHg 96%
    01:00 +25°C° 0.5 mm 5 mps 750 mmHg 96%
    02:00 +25°C° 0.6 mm 5 mps 750 mmHg 96%
    03:00 +25°C° 0.6 mm 5 mps 749 mmHg 96%
    04:00 +25°C° 0.6 mm 5 mps 749 mmHg 96%
    05:00 +25°C° 0.5 mm 5 mps 749 mmHg 96%
    06:00 +25°C° 0.5 mm 5 mps 750 mmHg 96%
    07:00 +25°C° 0.5 mm 5 mps 750 mmHg 96%
    08:00 +26°C° 0.6 mm 5 mps 750 mmHg 94%
    09:00 +26°C° 0.6 mm 5 mps 750 mmHg 93%
    10:00 +27°C° 0.6 mm 6 mps 751 mmHg 92%
    11:00 +27°C° 0.9 mm 6 mps 750 mmHg 92%
    12:00 +27°C° 0.9 mm 6 mps 750 mmHg 92%
    13:00 +27°C° 0.9 mm 6 mps 749 mmHg 92%
    14:00 +27°C° 0.9 mm 6 mps 749 mmHg 93%
    15:00 +26°C° 0.9 mm 6 mps 748 mmHg 93%
    16:00 +26°C° 0.9 mm 6 mps 748 mmHg 94%
    17:00 +26°C° 1.2 mm 6 mps 749 mmHg 95%
    18:00 +26°C° 1.2 mm 6 mps 749 mmHg 95%
    19:00 +26°C° 1.2 mm 6 mps 750 mmHg 96%
    20:00 +25°C° 2 mm 5 mps 750 mmHg 96%
    21:00 +25°C° 2 mm 5 mps 750 mmHg 97%
    22:00 +25°C° 2 mm 5 mps 750 mmHg 97%
    23:00 +25°C° 2.7 mm 5 mps 750 mmHg 97%

    15 December, Saturday

    Time Temperature Precipitation Wind Pressure Humidity
    00:00 +25°C° 2.7 mm 5 mps 750 mmHg 97%
    01:00 +25°C° 2.7 mm 5 mps 749 mmHg 97%
    02:00 +25°C° 2.6 mm 5 mps 749 mmHg 97%
    03:00 +25°C° 2.6 mm 5 mps 749 mmHg 98%
    04:00 +25°C° 2.6 mm 5 mps 748 mmHg 98%
    05:00 +25°C° 1.8 mm 5 mps 749 mmHg 97%
    06:00 +25°C° 1.8 mm 5 mps 749 mmHg 97%
    07:00 +25°C° 1.8 mm 5 mps 750 mmHg 97%
    08:00 +26°C° 2.3 mm 5 mps 750 mmHg 96%
    09:00 +26°C° 2.3 mm 5 mps 750 mmHg 95%
    10:00 +27°C° 2.3 mm 5 mps 751 mmHg 94%
    11:00 +27°C° 2.2 mm 5 mps 750 mmHg 94%
    12:00 +27°C° 2.2 mm 5 mps 749 mmHg 94%
    13:00 +27°C° 2.2 mm 5 mps 749 mmHg 94%
    14:00 +27°C° 2 mm 5 mps 748 mmHg 94%
    15:00 +27°C° 2 mm 5 mps 748 mmHg 95%
    16:00 +26°C° 2 mm 5 mps 748 mmHg 96%
    17:00 +26°C° 1.9 mm 5 mps 748 mmHg 96%
    18:00 +26°C° 1.9 mm 5 mps 749 mmHg 96%
    19:00 +26°C° 1.9 mm 5 mps 750 mmHg 97%
    20:00 +26°C° 1.6 mm 5 mps 750 mmHg 97%
    21:00 +26°C° 1.6 mm 5 mps 750 mmHg 97%
    22:00 +26°C° 1.6 mm 5 mps 750 mmHg 97%
    23:00 +25°C° 1.2 mm 5 mps 750 mmHg 97%

    16 December, Sunday

    Time Temperature Precipitation Wind Pressure Humidity
    00:00 +25°C° 1.2 mm 5 mps 750 mmHg 98%
    01:00 +25°C° 1.2 mm 5 mps 749 mmHg 98%
    02:00 +25°C° 0.8 mm 5 mps 749 mmHg 98%
    03:00 +25°C° 0.8 mm 5 mps 749 mmHg 97%
    04:00 +25°C° 0.8 mm 4 mps 749 mmHg 97%
    05:00 +25°C° 0.8 mm 5 mps 749 mmHg 97%
    06:00 +25°C° 0.8 mm 5 mps 750 mmHg 97%
    07:00 +25°C° 0.8 mm 5 mps 750 mmHg 97%
    08:00 +26°C° 0.9 mm 5 mps 751 mmHg 95%
    09:00 +27°C° 0.9 mm 5 mps 751 mmHg 93%
    10:00 +28°C° 0.9 mm 6 mps 751 mmHg 91%
    11:00 +28°C° 0.9 mm 6 mps 750 mmHg 91%
    12:00 +28°C° 0.9 mm 6 mps 750 mmHg 90%
    13:00 +28°C° 0.9 mm 6 mps 749 mmHg 90%
    14:00 +28°C° 0.2 mm 6 mps 749 mmHg 89%
    15:00 +28°C° 0.2 mm 6 mps 749 mmHg 87%
    16:00 +27°C° 0.2 mm 6 mps 748 mmHg 86%
    17:00 +27°C° 0.1 mm 6 mps 749 mmHg 88%
    18:00 +26°C° 0.1 mm 6 mps 750 mmHg 90%
    19:00 +24°C° 0.1 mm 6 mps 750 mmHg 92%
    20:00 +24°C° 0.1 mm 6 mps 750 mmHg 92%
    21:00 +24°C° 0.1 mm 6 mps 751 mmHg 92%
    22:00 +24°C° 0.1 mm 6 mps 751 mmHg 93%
    23:00 +24°C° 0.2 mm 6 mps 750 mmHg 93%

    17 December, Monday

    Time Temperature Precipitation Wind Pressure Humidity
    00:00 +24°C° 0.2 mm 6 mps 750 mmHg 93%
    01:00 +24°C° 0.2 mm 6 mps 750 mmHg 93%
    02:00 +24°C° 0.2 mm 6 mps 750 mmHg 93%
    03:00 +24°C° 0.2 mm 6 mps 749 mmHg 93%
    04:00 +24°C° 0.2 mm 6 mps 749 mmHg 93%
    05:00 +24°C° 0.1 mm 6 mps 750 mmHg 93%
    06:00 +24°C° 0.1 mm 6 mps 750 mmHg 93%
    07:00 +24°C° 0.1 mm 6 mps 751 mmHg 93%
    08:00 +26°C° 0.1 mm 7 mps 751 mmHg 90%
    09:00 +26°C° 0.1 mm 7 mps 751 mmHg 87%
    10:00 +27°C° 0.1 mm 7 mps 751 mmHg 85%
    11:00 +27°C° 0.2 mm 7 mps 750 mmHg 83%
    12:00 +28°C° 0.2 mm 7 mps 750 mmHg 81%
    13:00 +28°C° 0.2 mm 7 mps 749 mmHg 80%
    14:00 +28°C° 0.1 mm 7 mps 749 mmHg 80%
    15:00 +27°C° 0.1 mm 7 mps 749 mmHg 81%
    16:00 +27°C° 0.1 mm 7 mps 749 mmHg 82%
    17:00 +26°C° 0.1 mm 7 mps 749 mmHg 84%
    18:00 +24°C° 0.1 mm 6 mps 750 mmHg 87%
    19:00 +23°C° 0.1 mm 6 mps 751 mmHg 89%
    20:00 +23°C° 0 mm 6 mps 751 mmHg 89%
    21:00 +23°C° 0 mm 6 mps 751 mmHg 89%
    22:00 +22°C° 0 mm 6 mps 751 mmHg 89%
    23:00 +22°C° 0 mm 6 mps 750 mmHg 89%
    Show more